This is the latest recevied weather packets stored in our database for station/object KG7KID-7. If no packets are shown the sender has not sent any weather packets the latest 10 day(s).
| Time | Temp. | Humidity | Pressure | Rain* | Wind** | Luminosity | Snow |
|---|---|---|---|---|---|---|---|
| 1777665774 | 26.11° C | 12% | 975.6 hPa | 0 mm | - | - | - |
| 1777665475 | 26.11° C | 12% | 975.5 hPa | 0 mm | - | - | - |
| 1777665174 | 26.11° C | 12% | 975.5 hPa | 0 mm | - | - | - |
| 1777665159 | 25.56° C | 12% | 975.6 hPa | 0 mm | - | - | - |
| 1777665122 | 25.56° C | 12% | 975.6 hPa | 0 mm | - | - | - |
| 1777664874 | 25.56° C | 12% | 975.6 hPa | 0 mm | - | - | - |
| 1777664823 | 26.11° C | 11% | 975.7 hPa | 0 mm | - | - | - |
| 1777664574 | 26.11° C | 11% | 975.7 hPa | 0 mm | - | - | - |
| 1777664531 | 26.11° C | 12% | 975.7 hPa | 0 mm | - | - | - |
| 1777664274 | 26.11° C | 12% | 975.7 hPa | 0 mm | - | - | - |
| 1777664020 | 26.11° C | 13% | 975.9 hPa | 0 mm | - | - | - |
| 1777663675 | 26.11° C | 13% | 975.9 hPa | 0 mm | - | - | - |
| 1777663663 | 26.11° C | 12% | 976.1 hPa | 0 mm | - | - | - |
| 1777663378 | 26.11° C | 13% | 975.9 hPa | 0 mm | - | - | - |
| 1777663374 | 26.11° C | 12% | 976.1 hPa | 0 mm | - | - | - |
| 1777663074 | 26.11° C | 13% | 975.9 hPa | 0 mm | - | - | - |
| 1777662596 | 26.67° C | 13% | 976.1 hPa | 0 mm | - | - | - |
| 1777662574 | 26.11° C | 13% | 976.2 hPa | 0 mm | - | - | - |
| 1777662296 | 26.11° C | 13% | 976.2 hPa | 0 mm | - | - | - |
| 1777662281 | 25.56° C | 14% | 976.3 hPa | 0 mm | - | - | - |
| 1777662014 | 25° C | 14% | 976.3 hPa | 0 mm | - | - | - |
| 1777661995 | 25.56° C | 14% | 976.3 hPa | 0 mm | - | - | - |
| 1777661696 | 25° C | 14% | 976.3 hPa | 0 mm | - | - | - |
| 1777661397 | 25° C | 15% | 976.5 hPa | 0 mm | - | - | - |
| 1777661396 | 25° C | 14% | 976.5 hPa | 0 mm | - | - | - |
* Rain latest hour (hover to see other rain measurements)
** Current wind speed in m/s (hover to see current wind gust speed)